Montreal/Pierre Elliott Trudea, Quebec

6:22 AM EST on December 07, 2016 (GMT -0500)
Montreal International (Dorval)

Weather History for CYUL - October, 2012

Change the Weather History Date:

Thursday, October 4, 2012

  Actual Average Record
Temperature  
Mean Temperature 56 °F -  
Max Temperature 61 °F 58 °F 80 °F (2005)
Min Temperature 51 °F 42 °F 28 °F (1996)
Degree Days  
Heating Degree Days 9    
Growing Degree Days 6 (Base 50)    
Moisture  
Dew Point 56 °F    
Average Humidity 96    
Maximum Humidity 100    
Minimum Humidity 83    
Precipitation  
Precipitation 0.02 in - - ()
Sea Level Pressure  
Sea Level Pressure 30.07 in    
Wind  
Wind Speed 5 mph ()    
Max Wind Speed 9 mph    
Max Gust Speed -    
Visibility 5.6 miles    
Events Rain    
Averages and records for this station are not official NWS values.
T = Trace of Precipitation, MM = Missing Value Source: Averaged Metar Reports

Daily Weather History Graph

Daily Weather History Graph

Search for Another Location

Airport or City:

Trip Planner

Search our weather history database for the weather conditions in past years. The results will help you decide how hot, cold, wet, or windy it might be!

Date:

Astronomy

Oct. 04, 2012 Rise Set
Actual Time 6:57 AM EDT 6:28 PM EDT
Civil Twilight 6:28 AM EDT 6:58 PM EDT
Nautical Twilight 5:53 AM EDT 7:32 PM EDT
Astronomical Twilight 5:19 AM EDT 8:07 PM EDT
Moon 8:49 PM EDT (10/4) 11:25 AM EDT (10/4)
Length of Visible Light 12h 30m
Length of Day
11h 31m
Waning Gibbous, 82% of the Moon is Illuminated
Oct 4
Waning Gibbous
Oct 8
Last Quarter
Oct 15
New
Oct 21
First Quarter
Oct 29
Full

Hourly Weather History & Observations

Time (EDT) Temp. Dew Point Humidity Pressure Visibility Wind Dir Wind Speed Gust Speed Precip Events Conditions
12:00 AM 64.4 °F 59.0 °F 83% 30.13 in 15.0 mi NE 4.6 mph - N/A   Overcast
12:25 AM 64.4 °F - N/A% - 12.0 mi NE 6.9 mph - N/A   Overcast
1:00 AM 62.6 °F 59.0 °F 88% 30.12 in 10.0 mi NNE 6.9 mph - N/A   Overcast
1:12 AM 62.6 °F - N/A% - 10.0 mi NE 6.9 mph - N/A   Overcast
2:00 AM 61 °F 58 °F 88% 30.12 in 10 mi NNE 6.9 mph - -   Overcast
2:00 AM 60.8 °F 59.0 °F 94% 30.12 in 10.0 mi NNE 6.9 mph - N/A   Overcast
2:42 AM 59.0 °F - N/A% - 10.0 mi North 6.9 mph - N/A   Light Drizzle
3:00 AM 59.0 °F 57.2 °F 94% 30.12 in 4.0 mi North 6.9 mph - N/A   Light Drizzle
4:00 AM 55.4 °F 53.6 °F 94% 30.12 in 6.0 mi North 8.1 mph - N/A   Light Drizzle
5:00 AM 53.6 °F 53.6 °F 100% 30.12 in 12.0 mi North 9.2 mph - N/A   Overcast
6:00 AM 53.6 °F 51.8 °F 94% 30.13 in 10.0 mi NNE 5.8 mph - N/A   Overcast
7:00 AM 51.8 °F 51.8 °F 100% 30.13 in 4.0 mi North 5.8 mph - N/A   Overcast
7:19 AM 51.8 °F - N/A% - 4.0 mi North 6.9 mph - N/A   Overcast
7:47 AM 53.6 °F - N/A% - 3.0 mi NNE 6.9 mph - N/A   Light Drizzle
8:00 AM 53 °F 52 °F 95% 30.13 in 2 mi NNE 6.9 mph - - Rain Light Drizzle
8:00 AM 51.8 °F 51.8 °F 100% 30.13 in 2.5 mi NNE 8.1 mph - N/A   Light Drizzle
8:33 AM 53.6 °F - N/A% - 2.5 mi NNE 3.5 mph - N/A   Overcast
9:00 AM 53.6 °F 53.6 °F 100% 30.13 in 2.5 mi North 4.6 mph - N/A   Overcast
9:16 AM 53.6 °F - N/A% - 2.0 mi North 6.9 mph - N/A   Light Drizzle
9:35 AM 53.6 °F - N/A% - 1.5 mi NNE 6.9 mph - N/A   Light Drizzle
9:51 AM 53.6 °F - N/A% - 1.2 mi NNE 5.8 mph - N/A   Light Drizzle
10:00 AM 53.6 °F 53.6 °F 100% 30.12 in 1.8 mi NE 6.9 mph - N/A   Light Drizzle
10:50 AM 53.6 °F - N/A% - 3.0 mi North 4.6 mph - N/A   Light Drizzle
11:00 AM 55.4 °F 55.4 °F 100% 30.10 in 3.0 mi NNE 5.8 mph - N/A   Light Drizzle
11:45 AM 55.4 °F - N/A% - 4.0 mi NNE 4.6 mph - N/A   Overcast
12:00 PM 55.4 °F 55.4 °F 100% 30.10 in 4.0 mi North 3.5 mph - N/A   Overcast
12:45 PM 57.2 °F - N/A% - 4.0 mi Calm Calm - N/A   Light Drizzle
1:00 PM 57.2 °F 55.4 °F 94% 30.08 in 4.0 mi Calm Calm - N/A   Light Drizzle
1:27 PM 57.2 °F - N/A% - 5.0 mi North 2.3 mph - N/A   Overcast
1:50 PM 59.0 °F - N/A% - 5.0 mi Calm Calm - N/A   Light Drizzle
2:00 PM 58 °F 56 °F 90% 30.07 in 4 mi Calm Calm - - Rain Light Drizzle
2:00 PM 57.2 °F 55.4 °F 94% 30.07 in 4.0 mi Calm Calm - N/A   Light Drizzle
2:18 PM 59.0 °F - N/A% - 5.0 mi North 2.3 mph - N/A   Overcast
2:46 PM 59.0 °F - N/A% - 6.0 mi NE 2.3 mph - N/A Rain Light Rain
3:00 PM 60.8 °F 57.2 °F 88% 30.05 in 5.0 mi NE 2.3 mph - N/A Rain Light Rain
3:20 PM 60.8 °F - N/A% - 6.0 mi Calm Calm - N/A   Overcast
3:42 PM 60.8 °F - N/A% - 6.0 mi Calm Calm - N/A   Overcast
4:00 PM 60.8 °F 59.0 °F 94% 30.03 in 6.0 mi SSE 2.3 mph - N/A   Overcast
5:00 PM 60.8 °F 60.8 °F 100% 30.01 in 6.0 mi South 2.3 mph - N/A   Overcast
5:38 PM 60.8 °F - N/A% - 5.0 mi Calm Calm - N/A   Scattered Clouds
6:00 PM 60.8 °F 59.0 °F 94% 30.00 in 6.0 mi SE 2.3 mph - N/A   Partly Cloudy
7:00 PM 59.0 °F 59.0 °F 100% 29.99 in 6.0 mi Calm Calm - N/A   Partly Cloudy
8:00 PM 59 °F 58 °F 97% 29.99 in 6 mi ESE 4.6 mph - -   Mist
8:00 PM 59.0 °F 59.0 °F 100% 29.99 in 6.0 mi East 3.5 mph - N/A   Clear
9:00 PM 57.2 °F 57.2 °F 100% 29.99 in 6.0 mi ESE 2.3 mph - N/A   Clear
10:00 PM 57.2 °F 57.2 °F 100% 29.98 in 6.0 mi SSE 3.5 mph - N/A   Partly Cloudy
11:00 PM 59.0 °F 57.2 °F 94% 29.96 in 8.0 mi South 8.1 mph - N/A   Scattered Clouds